Accueil
METAR-TAF:

METAR-TAF

Aéroports :

Aéroport de Laval - Entrammes

Laval, France

latitude: 48-01-56N, longitude: 000-44-34W, altitude: 101 m

Observation

Le bulletin a été fait il y a 33 minutes, à 02:30 UTC
Vent 4 kt de ouest/nord-ouest
Température 12°C
Humidité 100%
Pression 1019 hPa
Visibilité: 9000 m

METAR: LFOV 170230Z AUTO 30004KT 9000 NSC 12/12 Q1019

Heure: 05:03 (03:03 UTC)


TAF: absent

Observations et prévisions météorologiques de plus de 4000 aéroports (messages METAR et TAF).

Les stations disponibles sont représentées par des disques jaunes et rouges sur la carte.

Passer la souris dessus pour voir le nom de la station.

Cliquer dessus pour voir les observations et prévisions météorologiques.

Pour changer de carte: cliquez sur les boutons verts avec une croix noire pour zoomer, sur le bouton vert avec un tiret pour effectuer un zoom arrière, ou sur les flèches vertes pour les cartes adjacentes.


METAR-TAF: